Tracking 19717 objects as of 25-Jun-2019
HD Live streaming from Space Station
objects crossing your sky now

METEOR 1-10 DEB


METEOR 1-10 DEB is no longer on orbit


NORAD ID: 29193
Int'l Code: 1971-120L
Perigee: N/A
Apogee: N/A
Inclination: N/A
Period: N/A
Semi major axis: N/A
RCS: N/A
Launch date: December 29, 1971
Source: Commonwealth of Independent States (former USSR) (CIS)
Launch site: PLESETSK MISSILE AND SPACE COMPLEX (PKMTR)
Decay date: 2014-06-26

Note: This is SATELLITE DEBRIS
aabbcc
Your satellite tracking list
Your tracking list is empty




NASA's NSSDC Master Catalog

Two Line Element Set (TLE):
1 29193U 71120L   14167.52302202  .00895926  00000-0  56238-2 0  9995
2 29193 081.1854 188.0419 0026454 223.0726 137.4632 15.73909063452366
Source of the keplerian elements: AFSPC